EW2918 Weather Reports


time (UTC)temp
C
wind
direction
speed
KPH
gust
KPH
rain 1hr
cm
rain 24hr
cm
rain mn
cm
humidity
%
barometer
mb
20260505194807 25 209 0.0 9.7 0.00 0.00 0.00 36 980.8
20260505194307 25 204 1.6 9.7 0.00 0.00 0.00 35 981.0
20260505193807 25 225 0.0 8.0 0.00 0.00 0.00 35 981.0
20260505191807 25 211 1.6 4.8 0.00 0.00 0.00 34 981.3
20260505191306 25 203 1.6 4.8 0.00 0.00 0.00 34 981.3
20260505190808 25 190 1.6 4.8 0.00 0.00 0.00 33 981.4
20260505190308 25 195 1.6 8.0 0.00 0.00 0.00 35 981.4
20260505184806 25 207 0.0 4.8 0.00 0.00 0.00 33 981.4
20260505184307 25 193 1.6 4.8 0.00 0.00 0.00 34 981.5
20260505183807 26 230 0.0 8.0 0.00 0.00 0.00 33 981.5
20260505183307 26 214 0.0 8.0 0.00 0.00 0.00 32 981.5
20260505181806 26 173 0.0 4.8 0.00 0.00 0.00 32 981.9
20260505180807 26 217 1.6 4.8 0.00 0.00 0.00 35 982.1
20260505180307 26 246 0.0 8.0 0.00 0.00 0.00 34 982.4
20260505174306 26 165 0.0 4.8 0.00 0.00 0.00 34 982.4
20260505173307 26 286 0.0 4.8 0.00 0.00 0.00 35 982.6
20260505171806 26 194 1.6 4.8 0.00 0.00 0.00 35 982.5
20260505171306 26 201 0.0 8.0 0.00 0.00 0.00 37 982.4
20260505170808 25 97 1.6 8.0 0.00 0.00 0.00 36 982.3
20260505170306 25 165 1.6 8.0 0.00 0.00 0.00 37 982.4
20260505164807 25 186 0.0 8.0 0.00 0.00 0.00 37 982.6
20260505164306 24 190 1.6 8.0 0.00 0.00 0.00 37 982.6
20260505163307 24 185 1.6 8.0 0.00 0.00 0.00 41 982.7
20260505161806 24 179 1.6 4.8 0.00 0.00 0.00 40 982.7
20260505161306 24 198 0.0 3.2 0.00 0.00 0.00 44 982.8
20260505160306 24 240 0.0 8.0 0.00 0.00 0.00 42 983.0
20260505153308 23 342 0.0 3.2 0.00 0.00 0.00 46 983.1
20260505151806 22 199 0.0 3.2 0.00 0.00 0.00 48 983.3
20260505151307 22 206 0.0 3.2 0.00 0.00 0.00 50 983.3
20260505150807 22 189 0.0 3.2 0.00 0.00 0.00 49 983.4
20260505140306 18 324 0.0 1.6 0.00 0.00 0.00 62 983.0
20260505130307 16 266 0.0 1.6 0.00 0.00 0.00 76 982.8
20260505124307 15 223 0.0 1.6 0.00 0.00 0.00 80 982.6
20260505123807 15 223 0.0 1.6 0.00 0.00 0.00 80 982.6
20260505123308 15 208 0.0 0.0 0.00 0.00 0.00 82 982.5
20260505121806 14 208 0.0 0.0 0.00 0.00 0.00 83 982.5
20260505121306 14 208 0.0 0.0 0.00 0.00 0.00 83 982.5
20260505120806 14 208 0.0 0.0 0.00 0.00 0.00 83 982.4
20260505120306 13 208 0.0 0.0 0.00 0.00 0.00 83 982.3
20260505114806 13 208 0.0 0.0 0.00 0.00 0.00 82 982.2
20260505114307 13 215 0.0 0.0 0.00 0.00 0.00 83 982.1
20260505113806 13 215 0.0 0.0 0.00 0.00 0.00 83 982.2
20260505111807 13 215 0.0 3.2 0.00 0.00 0.00 80 982.3
20260505110806 13 207 0.0 3.2 0.00 0.00 0.00 82 982.2
20260505101807 12 184 0.0 1.6 0.00 0.00 0.00 83 982.0
20260505101307 12 184 0.0 1.6 0.00 0.00 0.00 83 982.0
20260505100308 12 201 0.0 0.0 0.00 0.00 0.00 85 981.9
20260505094806 12 201 0.0 0.0 0.00 0.00 0.00 84 981.9
20260505094306 12 201 0.0 0.0 0.00 0.00 0.00 82 982.0
20260505093307 12 201 0.0 0.0 0.00 0.00 0.00 82 982.0
20260505091808 12 201 0.0 1.6 0.00 0.00 0.00 80 982.0
20260505091307 12 201 0.0 1.6 0.00 0.00 0.00 78 981.9
20260505090308 12 201 0.0 1.6 0.00 0.00 0.00 77 981.8
20260505084806 12 210 0.0 0.0 0.00 0.00 0.00 75 981.8
20260505084306 12 210 0.0 0.0 0.00 0.00 0.00 75 981.7
20260505083309 12 210 0.0 1.6 0.00 0.00 0.00 74 981.6
20260505081306 13 196 0.0 0.0 0.00 0.00 0.00 73 981.7
20260505080309 13 196 0.0 0.0 0.00 0.00 0.00 72 981.6
20260505074806 13 196 0.0 1.6 0.00 0.00 0.00 71 981.5
20260505074307 13 196 0.0 1.6 0.00 0.00 0.00 70 981.4
20260505073807 13 197 0.0 1.6 0.00 0.00 0.00 71 981.4
20260505073308 13 196 0.0 1.6 0.00 0.00 0.00 71 981.4
20260505071806 13 281 0.0 0.0 0.00 0.00 0.00 71 981.5
20260505070806 13 281 0.0 0.0 0.00 0.00 0.00 72 981.4
20260505070306 13 281 0.0 0.0 0.00 0.00 0.00 73 981.4
20260505064807 13 281 0.0 0.0 0.00 0.00 0.00 74 981.4
20260505064306 13 281 0.0 0.0 0.00 0.00 0.00 74 981.4
20260505063807 13 281 0.0 0.0 0.00 0.00 0.00 73 981.4
20260505063309 13 322 0.0 0.0 0.00 0.00 0.00 74 981.3
20260505061808 13 220 0.0 0.0 0.00 0.00 0.00 74 981.3
20260505061307 13 355 0.0 0.0 0.00 0.00 0.00 73 981.2
20260505060806 13 355 0.0 0.0 0.00 0.00 0.00 75 981.2
20260505060306 13 355 0.0 0.0 0.00 0.00 0.00 72 981.2
20260505054807 14 355 0.0 0.0 0.00 0.00 0.00 71 981.3
20260505054306 14 355 0.0 0.0 0.00 0.00 0.00 72 981.3
20260505053307 14 227 0.0 0.0 0.00 0.00 0.00 68 981.3
20260505051806 15 333 0.0 0.0 0.00 0.00 0.00 65 981.6
20260505051306 15 333 0.0 0.0 0.00 0.00 0.00 68 981.6
20260505050807 15 333 0.0 0.0 0.00 0.00 0.00 70 981.6
20260505050307 15 333 0.0 0.0 0.00 0.00 0.00 64 981.6
20260505041141 16 218 0.0 0.0 0.00 0.00 0.00 68 981.6
20260505040307 16 218 0.0 0.0 0.00 0.00 0.00 67 981.6
20260505034807 16 211 0.0 0.0 0.00 0.00 0.00 66 981.7
20260505034306 16 211 0.0 0.0 0.00 0.00 0.00 65 981.7
20260505033806 16 211 0.0 0.0 0.00 0.00 0.00 66 981.7
20260505033307 16 211 0.0 0.0 0.00 0.00 0.00 63 981.7
20260505031807 17 211 0.0 0.0 0.00 0.00 0.00 64 981.8
20260505031308 17 211 0.0 0.0 0.00 0.00 0.00 60 981.7
20260505030308 16 211 0.0 0.0 0.00 0.00 0.00 59 981.7
20260505024808 16 211 0.0 0.0 0.00 0.00 0.00 66 981.7
20260505024306 16 211 0.0 0.0 0.00 0.00 0.00 65 981.6
20260505023806 16 211 0.0 0.0 0.00 0.00 0.00 66 981.6
20260505023308 16 211 0.0 0.0 0.00 0.00 0.00 63 981.6
20260505014807 17 348 0.0 1.6 0.00 0.00 0.00 58 981.3
20260505013806 17 235 0.0 1.6 0.00 0.00 0.00 55 981.1
20260505013307 17 338 0.0 1.6 0.00 0.00 0.00 54 981.1
20260505011808 18 227 0.0 0.0 0.00 0.00 0.00 52 980.9
20260505011306 19 227 0.0 0.0 0.00 0.00 0.00 52 980.9
20260505010808 19 227 0.0 0.0 0.00 0.00 0.00 52 980.9
20260505010306 19 311 0.0 0.0 0.00 0.00 0.00 53 980.9
20260505004807 20 311 0.0 1.6 0.00 0.00 0.00 48 980.8
20260505004306 21 311 0.0 1.6 0.00 0.00 0.00 47 980.7
20260505003806 21 259 0.0 1.6 0.00 0.00 0.00 50 980.7
20260505001307 22 212 0.0 3.2 0.00 0.00 0.00 37 980.6
20260505000806 22 207 1.6 3.2 0.00 0.00 0.00 36 980.5
20260505000308 22 195 0.0 3.2 0.00 0.00 0.00 36 980.6
20260504234807 22 201 0.0 4.8 0.00 0.00 0.00 37 980.4
20260504234307 22 188 0.0 4.8 0.00 0.00 0.00 36 980.3
20260504233806 23 204 0.0 4.8 0.00 0.00 0.00 35 980.3
20260504233308 23 198 0.0 4.8 0.00 0.00 0.00 35 980.2
20260504231807 23 191 0.0 4.8 0.00 0.00 0.00 32 980.1
20260504231307 23 193 0.0 3.2 0.00 0.00 0.00 32 980.0
20260504230807 23 191 0.0 3.2 0.00 0.00 0.00 31 980.0
20260504230307 23 180 0.0 3.2 0.00 0.00 0.00 30 980.0
20260504224806 23 195 0.0 3.2 0.00 0.00 0.00 31 980.0
20260504224306 23 203 0.0 4.8 0.00 0.00 0.00 30 980.0
20260504223808 23 203 1.6 4.8 0.00 0.00 0.00 29 980.0
20260504223308 23 183 0.0 3.2 0.00 0.00 0.00 28 980.1
20260504221808 24 199 0.0 4.8 0.00 0.00 0.00 27 980.2
20260504221307 24 185 1.6 4.8 0.00 0.00 0.00 28 980.2
20260504220807 24 192 0.0 4.8 0.00 0.00 0.00 29 980.2
20260504220306 24 198 0.0 4.8 0.00 0.00 0.00 29 980.2
20260504214807 24 190 0.0 3.2 0.00 0.00 0.00 30 980.1
20260504214307 25 190 0.0 4.8 0.00 0.00 0.00 29 980.1
20260504213806 25 193 0.0 8.0 0.00 0.00 0.00 28 980.0
20260504213307 25 201 1.6 8.0 0.00 0.00 0.00 28 980.0
20260504211807 25 197 0.0 4.8 0.00 0.00 0.00 29 980.1
20260504211307 25 180 1.6 4.8 0.00 0.00 0.00 28 980.1
20260504210807 25 149 0.0 4.8 0.00 0.00 0.00 28 980.1
20260504204807 25 123 0.0 9.7 0.00 0.00 0.00 29 980.3
20260504204307 25 187 1.6 9.7 0.00 0.00 0.00 28 980.3
20260504203810 25 206 0.0 4.8 0.00 0.00 0.00 30 980.4